RH
55 56 58 60 63 64 63 65 63 62 63 62 55 52 54 56 58 65 71 73 72 82 83 80 74 57 44 50 59 60 58 59 55 58 55 47 51 50 43 51 42 47 48
51 53 54 56 61 67 65 66 65 61 60 58 57 54 53 54 56 63 68 70 73 72 72 70 58 45 44 51 46 53 58 58 54 57 50 58 59 44 42 50 45 46 59
52 53 53 55 56 60 62 62 63 60 55 55 55 55 52 53 55 61 69 75 73 73 68 61 53 46 45 54 43 53 56 56 50 57 60 64 64 65 60 58 51 45 45
50 51 51 56 58 58 58 59 59 58 55 53 53 54 54 56 56 62 72 81 75 70 67 55 56 47 45 45 44 55 57 52 55 57 63 64 68 62 61 58 52 53 53
50 52 51 55 57 58 57 56 58 56 55 54 58 59 60 62 58 62 72 84 80 74 55 69 62 51 48 56 51 56 57 50 56 60 60 58 57 55 61 53 57 45 42
50 53 51 56 57 56 57 56 55 55 56 56 62 64 62 57 62 65 69 84 80 81 61 69 57 55 60 58 54 52 53 52 59 68 62 60 64 63 64 61 61 59 51
49 52 52 56 57 58 58 58 56 54 55 56 63 64 63 59 62 54 68 80 77 71 62 62 61 70 66 64 58 47 53 55 59 67 60 64 67 65 64 69 72 65 64
48 53 53 58 59 60 60 61 61 55 54 54 60 63 61 60 61 62 64 75 76 70 62 63 64 67 67 71 67 55 50 57 63 65 64 59 64 65 66 66 69 67 70
49 51 52 55 58 59 62 61 62 60 54 54 54 61 58 61 67 65 66 68 70 65 59 66 65 68 65 65 72 59 53 47 53 58 63 67 59 62 63 65 64 66 68
50 49 52 54 56 59 63 66 67 64 56 58 54 56 67 68 70 71 70 68 70 69 65 69 69 67 68 68 71 69 60 55 50 50 58 64 66 65 69 70 65 61 59
49 49 49 49 51 57 62 70 70 66 63 60 57 63 61 63 72 70 72 68 72 72 70 73 70 68 66 75 83 83 74 62 56 57 57 60 64 63 67 71 62 56 55
50 47 49 48 49 53 60 70 69 67 68 61 66 64 63 59 61 70 75 73 73 75 74 74 73 71 71 75 83 90 84 71 66 56 61 57 64 66 68 69 60 59 58
44 47 45 47 48 49 55 63 66 64 72 65 70 74 74 72 66 70 73 77 75 76 78 78 77 73 74 77 78 86 89 85 71 64 58 60 58 63 62 65 66 68 71
44 43 43 45 47 47 50 60 63 61 64 69 72 81 83 78 69 63 64 69 75 78 81 78 79 79 78 79 81 83 87 90 88 71 65 62 60 63 58 63 67 67 73
51 51 50 48 46 46 47 50 58 60 60 66 68 74 78 81 78 71 64 62 69 71 77 81 81 81 83 84 85 87 87 88 93 87 80 69 60 63 59 58 66 72 74
52 51 51 48 48 47 46 46 49 53 56 60 65 68 77 79 79 77 73 73 66 70 77 79 83 84 86 89 88 90 92 91 89 89 88 83 76 60 64 64 60 68 75
57 58 54 56 50 43 45 46 46 47 47 53 60 69 75 78 76 73 74 73 67 71 78 86 86 88 93 93 96 97 99 95 92 90 89 86 85 76 66 62 66 66 69
62 66 65 59 49 43 42 45 46 47 46 48 55 64 74 76 76 76 70 70 69 71 82 86 92 95 95 92 99 97 98 98 94 92 88 87 84 87 75 71 65 69 72
60 70 79 77 62 52 48 44 47 51 51 53 57 61 65 70 73 74 76 71 75 80 82 85 90 92 96 96 98 99 98 98 96 95 90 86 89 86 84 77 72 71 74
60 69 82 82 75 61 55 45 42 52 53 57 64 68 71 70 69 73 73 77 80 79 80 82 86 86 93 97 99 97 98 95 95 97 93 90 90 88 85 82 79 77 80
54 67 74 77 73 71 67 56 47 50 51 54 57 63 67 73 77 78 75 75 74 74 81 86 89 91 96 96 96 96 96 96 96 97 98 95 91 89 80 76 75 76 79
47 60 69 70 73 73 68 61 57 58 56 51 51 55 62 66 68 76 78 81 79 78 80 83 86 90 91 95 93 92 94 95 92 94 98 97 94 94 91 80 80 76 79
40 45 56 60 68 65 61 57 54 55 53 52 50 52 52 58 64 66 71 79 82 78 77 80 85 86 89 92 92 90 90 93 91 93 95 96 98 95 93 84 80 76 74
35 40 45 51 54 61 71 72 66 60 55 58 57 56 53 56 60 65 70 73 79 82 78 83 86 86 84 87 89 85 87 90 93 93 91 93 95 98 94 87 79 77 74
35 35 40 45 46 49 50 58 64 70 68 69 65 62 69 72 74 73 68 71 75 79 79 79 82 85 84 87 88 88 86 90 90 92 93 92 95 95 94 88 81 77 72
30 32 34 38 42 45 46 50 51 55 61 62 64 65 66 72 72 69 68 70 73 77 78 81 86 87 89 88 88 89 89 89 91 91 91 93 93 98 97 91 85 80 71